Вернуться в каталог

DELTA 1 DEB

АктивенUNKNOWN
NORAD 10650·DEBRIS·🇺🇸 United States

Запущен Jul 29, 1976 с Vandenberg Space Force Base

Loading…

Ближайшие Пролёты (ближайшие 24 часа)

TLE

СвежийSource: Space-Track

Эпоха: Sep 13, 2026, 04:31 UTC

1 10650U 76077L   26256.18862922  .00000082  00000-0  19402-2 0  9996
2 10650 102.0895 334.3189 0437017 235.5247 147.5132 11.57492062121307

Отслеживайте DELTA 1 DEB в реальном времени с AllMySat

Download on the App Store